Regional Weather Roundup
Issued by NWS

Home | Current Version | Previous Version | Text Only | Print | Product List | Glossary On
Versions: 1 2 3 4 5 6 7 8 9 10 11 12 13 14 15 16 17 18 19 20 21 22 23 24 25 26 27 28 29 30 31 32 33 34 35 36 37 38 39 40 41 42 43 44 45 46 47 48 49 50
000
ASUS43 KMKX 211421
RWRWI

WISCONSIN REGIONAL WEATHER ROUNDUP
NATIONAL WEATHER SERVICE MILWAUKEE/SULLIVAN WI
900 AM CDT TUE OCT 21 2014

NOTE: "FAIR" INDICATES FEW OR NO CLOUDS BELOW 12,000 FEET WITH NO
SIGNIFICANT WEATHER AND/OR OBSTRUCTIONS TO VISIBILITY.

WIZ001-002-006>008-014>016-023>028-211500-
NORTHWEST WISCONSIN

CITY           SKY/WX    TMP DP  RH WIND       PRES   REMARKS
SUPERIOR ARPT  CLOUDY    43  35  72 E6        30.24S
ASHLAND        CLOUDY    42  35  76 NE9       30.26R
HAYWARD        CLOUDY    42  35  76 NE8       30.23R
SIREN          SUNNY     45  35  68 E6        30.22R
CUMBERLAND     CLOUDY    41  34  75 E7        30.21R
RICE LAKE      MOSUNNY   43  34  71 NE6       30.23R
CHETEK         MOSUNNY   43  35  75 E7        30.22R
LADYSMITH      CLOUDY    42  35  76 E9        30.23S
EAU CLAIRE     PTSUNNY   41  37  86 E5        30.22R
MENOMONIE      SUNNY     38  37  97 CALM      30.23R
NEW RICHMOND   SUNNY     38  38 100 E3        30.21R
OSCEOLA        SUNNY     37  37 100 CALM      30.24R
$$

WIZ003>005-009-010-017-018-211500-
NORTH CENTRAL WISCONSIN

CITY           SKY/WX    TMP DP  RH WIND       PRES   REMARKS
MANITOWISH WTR CLOUDY    36  35  94 NE5       30.23R WCI  32
ARBOR VITAE    CLOUDY    39  36  88 CALM      30.22R
WOODRUFF       CLOUDY    39  36  88 CALM      30.22R
RHINELANDER    CLOUDY    37  33  85 NE9       30.23R WCI  30
EAGLE RIVER    CLOUDY    37  34  87 NE12      30.22R WCI  29
LAND O LAKES   CLOUDY    37  34  87 NE7       30.23S WCI  32
PHILLIPS       CLOUDY    38  34  84 NE3       30.22R
TOMAHAWK       CLOUDY    39  34  81 NE3       30.23R
MEDFORD        CLOUDY    40  34  79 E10       30.21R WCI  34
MERRILL        CLOUDY    41  35  80 NE9       30.22R
$$

WIZ029-030-035-036-043>047-211500-
CENTRAL WISCONSIN

CITY           SKY/WX    TMP DP  RH WIND       PRES   REMARKS
WAUSAU         CLOUDY    42  34  73 NE6       30.21R
MOSINEE        CLOUDY    41  36  81 NE10      30.22R
MARSHFIELD     CLOUDY    42  35  76 NE10      30.21R
STEVENS POINT  CLOUDY    40  34  76 NE12      30.22R WCI  34
WAUPACA        CLOUDY    44  38  77 NE6       30.22R
WAUTOMA        CLOUDY    43  37  79 NE3       30.22R
WISC RAPIDS    CLOUDY    43  35  73 E9        30.23R
CAMP DOUGLAS   PTSUNNY   41  41 100 NE2       30.22R
$$

WIZ011>013-019>022-031-037>040-048>050-211500-
NORTHEAST WISCONSIN

CITY           SKY/WX    TMP DP  RH WIND       PRES   REMARKS
ANTIGO         CLOUDY    38  34  84 NE13      30.21R WCI  31
SHAWANO        CLOUDY    44  36  71 N10       30.22R
OCONTO         CLOUDY    42  36  78 N12       30.21R
STURGEON BAY   PTSUNNY   45  34  65 N15G22    30.21R
GREEN BAY      CLOUDY    44  38  79 N12       30.21R
MANITOWOC      CLOUDY    45  40  82 N10       30.18R
APPLETON       CLOUDY    43  34  70 N16       30.21R
CLINTONVILLE   CLOUDY    43  34  70 N13       30.22R
OSHKOSH        CLOUDY    44  37  76 N12       30.20R
$$

WIZ032>034-041-042-053>061-211500-
SOUTHWEST WISCONSIN

CITY           SKY/WX    TMP DP  RH WIND       PRES   REMARKS
LA CROSSE      SUNNY     44  39  82 CALM      30.22R
SPARTA         SUNNY     36  35  94 CALM      30.22S
VIROQUA        SUNNY     42  40  93 E6        30.20R
BOSCOBEL       FOG       38  36  92 CALM      30.22R VSB 1/4
PRAIRIE DU CHI FOG       39  38  95 CALM      30.21R VSB<1/4
PLATTEVILLE    SUNNY     45  40  83 NE10G16   30.20R
$$

WIZ056-057-062-063-064-067-068-211500-
SOUTH CENTRAL WISCONSIN

CITY           SKY/WX    TMP DP  RH WIND       PRES   REMARKS
REEDSBURG      SUNNY     42  36  79 NE8       30.21R
BARABOO/DELLS  CLOUDY    41  36  80 NE5       30.21R
LONE ROCK      SUNNY     48  37  65 E8        30.22R
MINERAL POINT  SUNNY     45  37  76 NE12      30.19R
MADISON        PTSUNNY   43  37  79 N6        30.21R
MIDDLETON      PTSUNNY   44  37  76 NE10      30.21R
WATERTOWN      CLOUDY    44  38  82 N6        30.19R
MONROE         SUNNY     43  37  81 NE15      30.18R
JANESVILLE     MOSUNNY   46  37  71 N8        30.18R
$$

WIZ051-052-058>065-066-070>072-211500-
SOUTHEAST WISCONSIN

CITY           SKY/WX    TMP DP  RH WIND       PRES   REMARKS
MILWAUKEE      PTSUNNY   47  39  74 N10       30.16R
WAUKESHA       CLOUDY    43  37  81 N10       30.17R
MILWAUKEE/TIMM CLOUDY    45  37  76 N7        30.17R
RACINE         CLOUDY    47  39  74 N12       30.17R
BURLINGTON     CLOUDY    44  38  79 N6        30.17R
KENOSHA        CLOUDY    47  40  76 N9        30.15R
FOND DU LAC    CLOUDY    45  37  73 N14       30.20R
SHEBOYGAN      CLOUDY    45  39  79 N10       30.18R
WEST BEND      CLOUDY    43  36  75 N9        30.18R
JUNEAU         CLOUDY    43  37  80 N9        30.20R
$$

LSZ147-162-211500-
LAKE SUPERIOR

STATION/POSITION TIME  TEMP    WIND        PRES    WAVE
                       AIR SEA DIR/SP/G            HT/PER
                 (UTC) (F)     (DEG/KT/KT) (MB)    (FT/S)
W MID LAKE BUOY  1350   41 46   60/ 10/ 14 1025.7R   4/ 6
DEVILS ISLAND    1400   42     100/ 12/ 15 1025.7R
PORT WING        1300   44      60/  7/ 10 1024.4
SAXON HARBOR     1300   43     100/  4/ 13 1024.0R
$$

LMZ867-665-643>646-211500-
LAKE MICHIGAN

STATION/POSITION TIME  TEMP    WIND        PRES    WAVE
                       AIR SEA DIR/SP/G            HT/PER
                 (UTC) (F)     (DEG/KT/KT) (MB)    (FT/S)
CHAMBERS ISLAND  1300   45     340/ 19/ 23 1022.4R
N MID LAKE BUOY  1350   44 51   10/ 17/ 21 1022.1R   4/ 5
NORTHPORT PIER   1300   45     360/ 12/ 16 1022.0R
SISTER BAY       1228          360/ 14/ 17   N/A
KEWAUNEE LAKESHO 1400   45      10/ 10/ 19 1021.2R
SHEBOYGAN LAKESH 1400   46 49  350/ 17/ 21 1022.4R
PORT WASHINGTON  1340   47     340/  7/ 12 1022.0R
ATWATER BUOY     1400   48     350/ 17/ 21 1022.1R
MILWAUKEE LAKESH 1400   47     340/ 11/ 18   N/A
S MID LAKE BUOY  1350   50 54  340/ 21/ 25 1019.5R   6/ 7
KENOSHA   LAKESH 1400   47     340/ 13/ 17 1020.7R
$$

TC  - TEMPERATURE IN CELSIUS
VSB - VISIBILITY IN STATUTE MILES
WCI - WIND CHILL INDEX
HX  - HEAT INDEX




USA.gov is the U.S. government's official web portal to all federal, state and local government web resources and services.